Location: Forst
(46.9333°N, 15.4333°E)
Time: 06:28:19
(UTC+00:00)

Lacrosse 5 rocket - Pass Details

Date: 16 April 2021
Orbit: 460 x 634 km, 57.0° (Epoch: 12 May)

Event Time Altitude Azimuth Distance (km) Brightness Sun altitude
Rises 19:38:13 0° 272° (W) 2,674 5.7 -17.5°
Reaches altitude 10° 19:40:38 10° 285° (WNW) 1,818 5.0 -17.8°
Maximum altitude 19:44:10 27° 344° (NNW) 1,115 3.5 -18.3°
Drops below altitude 10° 19:47:53 10° 42° (NE) 1,915 4.0 -18.7°
Sets 19:50:30 0° 55° (NE) 2,848 4.8 -19.1°
